Time,TemperatureF,DewpointF,PressureIn,WindDirection,WindDirectionDegrees,WindSpeedMPH,WindSpeedGustMPH,Humidity,HourlyPrecipIn,Conditions,Clouds,dailyrainin,SoftwareType,DateUTC
2013-01-26 00:00:00,51.2,49.2,29.98,NNW,334,5.0,8.0,93,0.00,,,0.00,WeatherCatV1.10B1784,2013-01-26 08:00:00,
2013-01-26 00:05:00,51.1,49.1,29.98,NNW,331,5.0,6.0,93,0.00,,,0.00,WeatherCatV1.10B1784,2013-01-26 08:05:00,
2013-01-26 00:10:00,51.1,49.1,29.98,NNW,337,4.0,5.0,93,0.00,,,0.00,WeatherCatV1.10B1784,2013-01-26 08:10:00,
2013-01-26 00:15:00,51.0,49.0,29.98,NNW,338,1.0,2.0,93,0.00,,,0.00,WeatherCatV1.10B1784,2013-01-26 08:15:00,
2013-01-26 00:20:00,51.0,49.0,29.98,NNW,337,1.0,2.0,93,0.00,,,0.00,WeatherCatV1.10B1784,2013-01-26 08:20:00,
2013-01-26 00:25:00,51.0,49.0,29.98,NNW,340,1.0,2.0,93,0.00,,,0.00,WeatherCatV1.10B1784,2013-01-26 08:25:00,
2013-01-26 00:30:00,51.0,49.0,29.97,NNW,339,2.0,3.0,93,0.00,,,0.00,WeatherCatV1.10B1784,2013-01-26 08:30:00,
2013-01-26 00:35:00,51.1,49.1,29.97,NNW,344,1.0,5.0,93,0.00,,,0.00,WeatherCatV1.10B1784,2013-01-26 08:35:00,
2013-01-26 00:40:00,51.4,49.2,29.97,NNW,333,5.0,6.0,92,0.00,,,0.00,WeatherCatV1.10B1784,2013-01-26 08:40:00,
2013-01-26 00:45:00,51.8,49.3,29.96,NNW,339,5.0,6.0,91,0.00,,,0.00,WeatherCatV1.10B1784,2013-01-26 08:45:00,
2013-01-26 00:50:00,51.7,49.5,29.96,NNW,346,8.0,8.0,92,0.00,,,0.00,WeatherCatV1.10B1784,2013-01-26 08:50:00,
2013-01-26 00:55:00,51.1,49.1,29.96,NNW,341,5.0,9.0,93,0.00,,,0.00,WeatherCatV1.10B1784,2013-01-26 08:55:00,
2013-01-26 01:00:00,50.8,49.1,29.96,NNW,333,8.0,8.0,94,0.00,,,0.00,WeatherCatV1.10B1784,2013-01-26 09:00:00,
2013-01-26 01:05:00,50.6,48.9,29.96,NW,325,6.0,7.0,94,0.00,,,0.00,WeatherCatV1.10B1784,2013-01-26 09:05:00,
2013-01-26 01:10:00,50.6,48.9,29.96,NNW,345,5.0,7.0,94,0.00,,,0.00,WeatherCatV1.10B1784,2013-01-26 09:10:00,
2013-01-26 01:15:00,50.6,48.9,29.96,NW,323,3.0,6.0,94,0.00,,,0.00,WeatherCatV1.10B1784,2013-01-26 09:15:00,
2013-01-26 01:20:00,50.8,48.8,29.96,North,353,5.0,6.0,93,0.00,,,0.00,WeatherCatV1.10B1784,2013-01-26 09:20:00,
2013-01-26 01:25:00,50.8,48.8,29.96,NNW,335,5.0,6.0,93,0.00,,,0.00,WeatherCatV1.10B1784,2013-01-26 09:25:00,
2013-01-26 01:30:00,50.9,48.7,29.95,NW,325,4.0,6.0,92,0.00,,,0.00,WeatherCatV1.10B1784,2013-01-26 09:30:00,
2013-01-26 01:35:00,51.2,48.7,29.95,NW,320,3.0,6.0,91,0.00,,,0.00,WeatherCatV1.10B1784,2013-01-26 09:35:00,
2013-01-26 01:40:00,51.5,48.7,29.95,NNW,335,5.0,7.0,90,0.00,,,0.00,WeatherCatV1.10B1784,2013-01-26 09:40:00,
2013-01-26 01:45:00,51.8,48.7,29.95,NNW,332,4.0,6.0,89,0.00,,,0.00,WeatherCatV1.10B1784,2013-01-26 09:45:00,
2013-01-26 01:50:00,51.9,48.8,29.95,NNW,337,4.0,6.0,89,0.00,,,0.00,WeatherCatV1.10B1784,2013-01-26 09:50:00,
2013-01-26 01:55:00,51.9,48.8,29.95,NNW,327,5.0,6.0,89,0.00,,,0.00,WeatherCatV1.10B1784,2013-01-26 09:55:00,
2013-01-26 02:00:00,51.5,48.7,29.96,NNW,342,3.0,6.0,90,0.00,,,0.00,WeatherCatV1.10B1784,2013-01-26 10:00:00,
2013-01-26 02:05:00,51.1,48.6,29.96,NNW,340,3.0,4.0,91,0.00,,,0.00,WeatherCatV1.10B1784,2013-01-26 10:05:00,
2013-01-26 02:10:00,50.9,48.7,29.96,NNW,335,2.0,4.0,92,0.00,,,0.00,WeatherCatV1.10B1784,2013-01-26 10:10:00,
2013-01-26 02:15:00,50.9,48.7,29.95,NNW,341,3.0,5.0,92,0.00,,,0.00,WeatherCatV1.10B1784,2013-01-26 10:15:00,
2013-01-26 02:20:00,50.8,48.6,29.95,NNW,333,2.0,3.0,92,0.00,,,0.00,WeatherCatV1.10B1784,2013-01-26 10:20:00,
2013-01-26 02:25:00,50.9,48.4,29.95,WNW,291,1.0,4.0,91,0.00,,,0.00,WeatherCatV1.10B1784,2013-01-26 10:25:00,
2013-01-26 02:30:00,51.1,48.6,29.95,NW,324,2.0,4.0,91,0.00,,,0.00,WeatherCatV1.10B1784,2013-01-26 10:30:00,
2013-01-26 02:35:00,51.3,48.8,29.95,NNW,327,3.0,4.0,91,0.00,,,0.00,WeatherCatV1.10B1784,2013-01-26 10:35:00,
2013-01-26 02:40:00,51.2,48.7,29.95,NW,325,5.0,5.0,91,0.00,,,0.00,WeatherCatV1.10B1784,2013-01-26 10:40:00,
2013-01-26 02:45:00,51.1,48.6,29.95,NNW,330,2.0,5.0,91,0.00,,,0.00,WeatherCatV1.10B1784,2013-01-26 10:45:00,
2013-01-26 02:50:00,50.8,48.3,29.95,NW,323,2.0,6.0,91,0.00,,,0.00,WeatherCatV1.10B1784,2013-01-26 10:50:00,
2013-01-26 02:55:00,50.5,48.0,29.95,NNW,339,1.0,5.0,91,0.00,,,0.00,WeatherCatV1.10B1784,2013-01-26 10:55:00,
2013-01-26 03:00:00,50.5,48.3,29.95,NNW,334,3.0,4.0,92,0.00,,,0.00,WeatherCatV1.10B1784,2013-01-26 11:00:00,
2013-01-26 03:05:00,50.5,48.3,29.95,NNW,341,2.0,6.0,92,0.00,,,0.00,WeatherCatV1.10B1784,2013-01-26 11:05:00,
2013-01-26 03:10:00,50.5,48.0,29.95,NNW,344,2.0,7.0,91,0.00,,,0.00,WeatherCatV1.10B1784,2013-01-26 11:10:00,
2013-01-26 03:15:00,50.5,48.0,29.95,North,4,4.0,6.0,91,0.00,,,0.00,WeatherCatV1.10B1784,2013-01-26 11:15:00,
2013-01-26 03:20:00,50.5,48.0,29.95,NNW,339,5.0,7.0,91,0.00,,,0.00,WeatherCatV1.10B1784,2013-01-26 11:20:00,
2013-01-26 03:25:00,50.5,48.0,29.95,North,356,4.0,6.0,91,0.00,,,0.00,WeatherCatV1.10B1784,2013-01-26 11:25:00,
2013-01-26 03:30:00,50.4,48.2,29.94,NNW,332,7.0,7.0,92,0.00,,,0.00,WeatherCatV1.10B1784,2013-01-26 11:30:00,
2013-01-26 03:35:00,50.2,48.0,29.94,NW,320,5.0,6.0,92,0.00,,,0.00,WeatherCatV1.10B1784,2013-01-26 11:35:00,
2013-01-26 03:40:00,50.1,47.9,29.94,NNW,327,2.0,6.0,92,0.00,,,0.00,WeatherCatV1.10B1784,2013-01-26 11:40:00,
2013-01-26 03:45:00,49.9,48.0,29.95,NNW,345,3.0,4.0,93,0.00,,,0.00,WeatherCatV1.10B1784,2013-01-26 11:45:00,
2013-01-26 03:50:00,49.7,47.8,29.95,NNW,331,4.0,4.0,93,0.00,,,0.00,WeatherCatV1.10B1784,2013-01-26 11:50:00,
2013-01-26 03:55:00,49.6,47.7,29.95,NNW,342,2.0,2.0,93,0.00,,,0.00,WeatherCatV1.10B1784,2013-01-26 11:55:00,
2013-01-26 04:00:00,49.5,47.6,29.94,NNW,342,0.0,2.0,93,0.00,,,0.00,WeatherCatV1.10B1784,2013-01-26 12:00:00,
2013-01-26 04:05:00,49.5,47.8,29.94,NNW,343,0.0,3.0,94,0.00,,,0.00,WeatherCatV1.10B1784,2013-01-26 12:05:00,
2013-01-26 04:10:00,49.6,47.7,29.94,North,4,0.0,0.0,93,0.00,,,0.00,WeatherCatV1.10B1784,2013-01-26 12:10:00,
2013-01-26 04:15:00,49.6,47.7,29.94,NNW,336,0.0,3.0,93,0.00,,,0.00,WeatherCatV1.10B1784,2013-01-26 12:15:00,
2013-01-26 04:20:00,49.7,47.8,29.94,NNW,337,0.0,0.0,93,0.00,,,0.00,WeatherCatV1.10B1784,2013-01-26 12:20:00,
2013-01-26 04:25:00,49.6,47.7,29.94,North,351,0.0,2.0,93,0.00,,,0.00,WeatherCatV1.10B1784,2013-01-26 12:25:00,
2013-01-26 04:30:00,49.6,47.7,29.94,North,349,0.0,1.0,93,0.00,,,0.00,WeatherCatV1.10B1784,2013-01-26 12:30:00,
2013-01-26 04:35:00,49.5,47.6,29.94,NNW,345,0.0,2.0,93,0.00,,,0.00,WeatherCatV1.10B1784,2013-01-26 12:35:00,
2013-01-26 04:40:00,49.4,47.5,29.94,NNW,331,2.0,3.0,93,0.00,,,0.00,WeatherCatV1.10B1784,2013-01-26 12:40:00,
2013-01-26 04:45:00,49.3,47.4,29.94,NNW,333,0.0,1.0,93,0.00,,,0.00,WeatherCatV1.10B1784,2013-01-26 12:45:00,
2013-01-26 04:50:00,49.1,46.9,29.94,NNW,333,0.0,0.0,92,0.00,,,0.00,WeatherCatV1.10B1784,2013-01-26 12:50:00,
2013-01-26 04:55:00,48.9,47.2,29.94,NNW,330,0.0,3.0,94,0.00,,,0.00,WeatherCatV1.10B1784,2013-01-26 12:55:00,
2013-01-26 05:00:00,48.8,47.2,29.94,NNW,334,0.0,3.0,94,0.00,,,0.00,WeatherCatV1.10B1784,2013-01-26 13:00:00,
2013-01-26 05:05:00,48.7,47.0,29.94,NNW,333,1.0,1.0,94,0.00,,,0.00,WeatherCatV1.10B1784,2013-01-26 13:05:00,
2013-01-26 05:10:00,48.5,46.9,29.94,NNW,333,0.0,1.0,94,0.00,,,0.00,WeatherCatV1.10B1784,2013-01-26 13:10:00,
2013-01-26 05:15:00,48.4,46.8,29.94,NNW,330,0.0,1.0,94,0.00,,,0.00,WeatherCatV1.10B1784,2013-01-26 13:15:00,
2013-01-26 05:20:00,48.4,46.8,29.94,NNW,334,0.0,0.0,94,0.00,,,0.00,WeatherCatV1.10B1784,2013-01-26 13:20:00,
2013-01-26 05:25:00,48.4,46.8,29.94,NNW,334,0.0,0.0,94,0.00,,,0.00,WeatherCatV1.10B1784,2013-01-26 13:25:00,
2013-01-26 05:30:00,48.3,46.4,29.94,NNW,334,0.0,0.0,93,0.00,,,0.00,WeatherCatV1.10B1784,2013-01-26 13:30:00,
2013-01-26 05:35:00,48.2,46.3,29.94,NNW,334,0.0,0.0,93,0.00,,,0.00,WeatherCatV1.10B1784,2013-01-26 13:35:00,
2013-01-26 05:40:00,48.0,46.1,29.94,NNW,334,0.0,0.0,93,0.00,,,0.00,WeatherCatV1.10B1784,2013-01-26 13:40:00,
2013-01-26 05:45:00,47.8,46.2,29.94,NNW,334,0.0,0.0,94,0.00,,,0.00,WeatherCatV1.10B1784,2013-01-26 13:45:00,
2013-01-26 05:50:00,47.7,46.1,29.94,NNW,335,0.0,0.0,94,0.00,,,0.00,WeatherCatV1.10B1784,2013-01-26 13:50:00,
2013-01-26 05:55:00,47.7,46.1,29.94,NNW,335,0.0,0.0,94,0.00,,,0.00,WeatherCatV1.10B1784,2013-01-26 13:55:00,
2013-01-26 06:00:00,47.6,46.0,29.94,NNW,335,0.0,0.0,94,0.00,,,0.00,WeatherCatV1.10B1784,2013-01-26 14:00:00,
2013-01-26 06:05:00,47.6,46.0,29.94,North,0,1.0,1.0,94,0.00,,,0.00,WeatherCatV1.10B1784,2013-01-26 14:05:00,
2013-01-26 06:10:00,47.9,46.3,29.94,NNW,336,1.0,3.0,94,0.00,,,0.00,WeatherCatV1.10B1784,2013-01-26 14:10:00,
2013-01-26 06:15:00,48.3,46.7,29.94,NNW,333,1.0,3.0,94,0.00,,,0.00,WeatherCatV1.10B1784,2013-01-26 14:15:00,
2013-01-26 06:20:00,48.5,46.6,29.94,NNW,334,1.0,2.0,93,0.00,,,0.00,WeatherCatV1.10B1784,2013-01-26 14:20:00,
2013-01-26 06:25:00,48.7,46.8,29.94,NNW,335,2.0,2.0,93,0.00,,,0.00,WeatherCatV1.10B1784,2013-01-26 14:25:00,
2013-01-26 06:30:00,48.8,46.6,29.94,NNW,335,1.0,3.0,92,0.00,,,0.00,WeatherCatV1.10B1784,2013-01-26 14:30:00,
2013-01-26 06:35:00,48.9,46.7,29.94,NNW,336,1.0,2.0,92,0.00,,,0.00,WeatherCatV1.10B1784,2013-01-26 14:35:00,
2013-01-26 06:40:00,49.0,46.8,29.94,NNW,337,2.0,4.0,92,0.00,,,0.00,WeatherCatV1.10B1784,2013-01-26 14:40:00,
2013-01-26 06:45:00,48.9,46.7,29.94,NNW,337,3.0,4.0,92,0.00,,,0.00,WeatherCatV1.10B1784,2013-01-26 14:45:00,
2013-01-26 06:50:00,48.9,46.7,29.94,NNW,336,3.0,4.0,92,0.00,,,0.00,WeatherCatV1.10B1784,2013-01-26 14:50:00,
2013-01-26 06:55:00,48.9,46.7,29.94,NNW,336,3.0,4.0,92,0.00,,,0.00,WeatherCatV1.10B1784,2013-01-26 14:55:00,
2013-01-26 07:00:00,48.9,46.7,29.94,NNW,336,3.0,4.0,92,0.00,,,0.00,WeatherCatV1.10B1784,2013-01-26 15:00:00,
2013-01-26 07:05:00,48.9,46.7,29.94,NNW,336,3.0,4.0,92,0.00,,,0.00,WeatherCatV1.10B1784,2013-01-26 15:05:00,
2013-01-26 07:10:00,48.9,46.7,29.94,NNW,336,3.0,4.0,92,0.00,,,0.00,WeatherCatV1.10B1784,2013-01-26 15:10:00,
2013-01-26 07:15:00,48.9,46.7,29.94,NNW,336,3.0,4.0,92,0.00,,,0.00,WeatherCatV1.10B1784,2013-01-26 15:15:00,
2013-01-26 07:20:00,48.9,46.7,29.94,NNW,338,2.0,5.0,92,0.00,,,0.00,WeatherCatV1.10B1784,2013-01-26 15:20:00,
2013-01-26 07:25:00,48.9,46.7,29.94,NNW,338,2.0,5.0,92,0.00,,,0.00,WeatherCatV1.10B1784,2013-01-26 15:25:00,
2013-01-26 07:30:00,48.9,46.7,29.94,NNW,338,2.0,5.0,92,0.00,,,0.00,WeatherCatV1.10B1784,2013-01-26 15:30:00,
2013-01-26 07:35:00,48.9,46.7,29.94,NNW,338,2.0,5.0,92,0.00,,,0.00,WeatherCatV1.10B1784,2013-01-26 15:35:00,
2013-01-26 07:47:00,48.9,46.7,29.94,NNW,338,2.0,5.0,92,0.00,,,0.00,WeatherCatV1.10B1784,2013-01-26 15:47:00,
2013-01-26 07:52:00,47.4,46.0,29.94,NNW,339,2.0,5.0,95,0.00,,,0.00,WeatherCatV1.10B1784,2013-01-26 15:52:00,
2013-01-26 07:57:00,47.5,46.4,29.94,NNW,346,2.0,4.0,96,0.00,,,0.00,WeatherCatV1.10B1784,2013-01-26 15:57:00,
2013-01-26 08:02:00,47.7,46.6,29.94,NNW,335,2.0,4.0,96,0.00,,,0.00,WeatherCatV1.10B1784,2013-01-26 16:02:00,
2013-01-26 08:07:00,48.0,46.6,29.94,NNW,339,2.0,3.0,95,0.00,,,0.00,WeatherCatV1.10B1784,2013-01-26 16:07:00,
2013-01-26 08:12:00,48.3,46.9,29.94,NNW,332,1.0,2.0,95,0.00,,,0.00,WeatherCatV1.10B1784,2013-01-26 16:12:00,
2013-01-26 08:17:00,48.5,46.9,29.94,NNW,329,2.0,3.0,94,0.00,,,0.00,WeatherCatV1.10B1784,2013-01-26 16:17:00,
2013-01-26 08:22:00,48.9,47.2,29.94,NNW,329,2.0,3.0,94,0.00,,,0.00,WeatherCatV1.10B1784,2013-01-26 16:22:00,
2013-01-26 08:27:00,49.0,47.3,29.94,NNW,327,0.0,3.0,94,0.00,,,0.00,WeatherCatV1.10B1784,2013-01-26 16:27:00,
2013-01-26 08:32:00,49.0,47.1,29.94,NNW,329,1.0,4.0,93,0.00,,,0.00,WeatherCatV1.10B1784,2013-01-26 16:32:00,
2013-01-26 08:37:00,48.8,46.9,29.94,NNW,334,1.0,2.0,93,0.00,,,0.00,WeatherCatV1.10B1784,2013-01-26 16:37:00,
2013-01-26 08:42:00,48.8,46.9,29.94,NNW,337,0.0,0.0,93,0.00,,,0.00,WeatherCatV1.10B1784,2013-01-26 16:42:00,
2013-01-26 08:47:00,48.9,47.0,29.94,NNW,346,0.0,0.0,93,0.00,,,0.00,WeatherCatV1.10B1784,2013-01-26 16:47:00,
2013-01-26 08:52:00,49.0,46.8,29.94,NNW,346,0.0,0.0,92,0.00,,,0.00,WeatherCatV1.10B1784,2013-01-26 16:52:00,
2013-01-26 08:57:00,49.1,46.9,29.94,NNW,346,0.0,0.0,92,0.00,,,0.00,WeatherCatV1.10B1784,2013-01-26 16:57:00,
2013-01-26 09:02:00,49.4,46.9,29.94,NNW,346,0.0,0.0,91,0.00,,,0.00,WeatherCatV1.10B1784,2013-01-26 17:02:00,
2013-01-26 09:07:00,49.6,47.1,29.94,NNW,346,0.0,0.0,91,0.00,,,0.00,WeatherCatV1.10B1784,2013-01-26 17:07:00,
2013-01-26 09:12:00,50.1,47.9,29.94,NNW,346,0.0,0.0,92,0.00,,,0.00,WeatherCatV1.10B1784,2013-01-26 17:12:00,
2013-01-26 09:17:00,50.6,48.1,29.94,NNW,346,0.0,0.0,91,0.00,,,0.00,WeatherCatV1.10B1784,2013-01-26 17:17:00,
2013-01-26 09:22:00,50.8,48.0,29.94,NNW,346,0.0,0.0,90,0.00,,,0.00,WeatherCatV1.10B1784,2013-01-26 17:22:00,
2013-01-26 09:27:00,50.9,48.4,29.94,NNW,341,0.0,0.0,91,0.00,,,0.00,WeatherCatV1.10B1784,2013-01-26 17:27:00,
2013-01-26 09:32:00,50.8,48.0,29.95,NNW,341,0.0,0.0,90,0.00,,,0.00,WeatherCatV1.10B1784,2013-01-26 17:32:00,
2013-01-26 09:37:00,51.0,48.2,29.95,NNW,332,0.0,2.0,90,0.00,,,0.00,WeatherCatV1.10B1784,2013-01-26 17:37:00,
2013-01-26 09:42:00,51.2,48.4,29.95,NNW,333,3.0,4.0,90,0.00,,,0.00,WeatherCatV1.10B1784,2013-01-26 17:42:00,
2013-01-26 09:47:00,51.7,48.6,29.95,NNW,341,0.0,1.0,89,0.00,,,0.00,WeatherCatV1.10B1784,2013-01-26 17:47:00,
2013-01-26 09:52:00,52.2,48.8,29.95,North,354,1.0,1.0,88,0.00,,,0.00,WeatherCatV1.10B1784,2013-01-26 17:52:00,
2013-01-26 09:57:00,52.5,48.4,29.95,NNW,334,2.0,3.0,86,0.00,,,0.00,WeatherCatV1.10B1784,2013-01-26 17:57:00,
2013-01-26 10:02:00,52.4,48.3,29.95,North,350,4.0,5.0,86,0.00,,,0.00,WeatherCatV1.10B1784,2013-01-26 18:02:00,
2013-01-26 10:07:00,51.9,48.5,29.95,NW,325,3.0,4.0,88,0.00,,,0.00,WeatherCatV1.10B1784,2013-01-26 18:07:00,
2013-01-26 10:12:00,51.3,47.9,29.95,NNE,21,1.0,7.0,88,0.00,,,0.00,WeatherCatV1.10B1784,2013-01-26 18:12:00,
2013-01-26 10:17:00,50.9,47.8,29.96,NNW,337,2.0,2.0,89,0.00,,,0.00,WeatherCatV1.10B1784,2013-01-26 18:17:00,
2013-01-26 10:22:00,50.5,47.4,29.96,NNW,334,4.0,4.0,89,0.00,,,0.00,WeatherCatV1.10B1784,2013-01-26 18:22:00,
2013-01-26 10:27:00,50.5,47.4,29.96,North,352,0.0,2.0,89,0.00,,,0.00,WeatherCatV1.10B1784,2013-01-26 18:27:00,
2013-01-26 10:32:00,50.7,47.3,29.96,NNW,329,1.0,4.0,88,0.00,,,0.00,WeatherCatV1.10B1784,2013-01-26 18:32:00,
2013-01-26 10:37:00,51.0,47.3,29.96,North,357,0.0,2.0,87,0.00,,,0.00,WeatherCatV1.10B1784,2013-01-26 18:37:00,
2013-01-26 10:42:00,51.9,47.2,29.96,NNW,331,5.0,5.0,84,0.00,,,0.00,WeatherCatV1.10B1784,2013-01-26 18:42:00,
2013-01-26 10:47:00,51.7,47.6,29.96,NNW,341,2.0,3.0,86,0.00,,,0.00,WeatherCatV1.10B1784,2013-01-26 18:47:00,
2013-01-26 10:52:00,51.1,47.4,29.96,NNW,340,1.0,3.0,87,0.00,,,0.00,WeatherCatV1.10B1784,2013-01-26 18:52:00,
2013-01-26 10:57:00,50.4,47.3,29.96,North,358,0.0,2.0,89,0.00,,,0.00,WeatherCatV1.10B1784,2013-01-26 18:57:00,
2013-01-26 11:02:00,50.0,47.2,29.96,NNW,336,1.0,2.0,90,0.00,,,0.00,WeatherCatV1.10B1784,2013-01-26 19:02:00,
2013-01-26 11:07:00,49.7,46.9,29.96,NNW,340,0.0,1.0,90,0.00,,,0.00,WeatherCatV1.10B1784,2013-01-26 19:07:00,
2013-01-26 11:12:00,49.6,46.8,29.96,North,349,0.0,1.0,90,0.00,,,0.00,WeatherCatV1.10B1784,2013-01-26 19:12:00,
2013-01-26 11:17:00,49.7,47.2,29.96,NNW,340,0.0,0.0,91,0.00,,,0.00,WeatherCatV1.10B1784,2013-01-26 19:17:00,
2013-01-26 11:22:00,49.8,47.3,29.96,NNW,335,1.0,2.0,91,0.00,,,0.00,WeatherCatV1.10B1784,2013-01-26 19:22:00,
2013-01-26 11:27:00,49.9,47.1,29.96,NNW,341,0.0,3.0,90,0.00,,,0.00,WeatherCatV1.10B1784,2013-01-26 19:27:00,
2013-01-26 11:32:00,49.7,46.9,29.96,NNW,331,1.0,2.0,90,0.00,,,0.00,WeatherCatV1.10B1784,2013-01-26 19:32:00,
2013-01-26 11:37:00,49.5,46.7,29.96,North,354,0.0,2.0,90,0.00,,,0.00,WeatherCatV1.10B1784,2013-01-26 19:37:00,
2013-01-26 11:42:00,49.6,46.8,29.96,North,0,0.0,2.0,90,0.00,,,0.00,WeatherCatV1.10B1784,2013-01-26 19:42:00,
2013-01-26 11:47:00,49.7,46.6,29.95,ENE,64,0.0,1.0,89,0.00,,,0.00,WeatherCatV1.10B1784,2013-01-26 19:47:00,
2013-01-26 11:52:00,50.1,46.7,29.95,NNW,346,1.0,1.0,88,0.00,,,0.00,WeatherCatV1.10B1784,2013-01-26 19:52:00,
2013-01-26 11:57:00,50.9,46.6,29.95,NNW,346,1.0,5.0,85,0.00,,,0.00,WeatherCatV1.10B1784,2013-01-26 19:57:00,
2013-01-26 12:02:00,51.3,47.3,29.94,NNW,345,6.0,6.0,86,0.00,,,0.00,WeatherCatV1.10B1784,2013-01-26 20:02:00,
2013-01-26 12:07:00,50.8,45.8,29.94,South,171,1.0,5.0,83,0.00,,,0.00,WeatherCatV1.10B1784,2013-01-26 20:07:00,
2013-01-26 12:12:00,50.3,45.7,29.94,NNW,348,2.0,4.0,84,0.00,,,0.00,WeatherCatV1.10B1784,2013-01-26 20:12:00,
2013-01-26 12:17:00,50.1,44.5,29.94,NNW,337,3.0,7.0,81,0.00,,,0.00,WeatherCatV1.10B1784,2013-01-26 20:17:00,
2013-01-26 12:22:00,50.5,45.2,29.94,North,1,2.0,3.0,82,0.00,,,0.00,WeatherCatV1.10B1784,2013-01-26 20:22:00,
2013-01-26 12:27:00,51.2,45.6,29.94,NNE,33,0.0,1.0,81,0.00,,,0.00,WeatherCatV1.10B1784,2013-01-26 20:27:00,
2013-01-26 12:32:00,51.8,44.8,29.93,NNW,343,4.0,5.0,77,0.00,,,0.00,WeatherCatV1.10B1784,2013-01-26 20:32:00,
2013-01-26 12:37:00,51.5,44.5,29.93,NNW,336,2.0,5.0,77,0.00,,,0.00,WeatherCatV1.10B1784,2013-01-26 20:37:00,
2013-01-26 12:42:00,50.9,44.3,29.93,NNW,334,2.0,4.0,78,0.00,,,0.00,WeatherCatV1.10B1784,2013-01-26 20:42:00,
2013-01-26 12:47:00,50.1,44.2,29.93,NNW,332,1.0,3.0,80,0.00,,,0.00,WeatherCatV1.10B1784,2013-01-26 20:47:00,
2013-01-26 12:52:00,49.8,43.6,29.93,NNW,334,2.0,5.0,79,0.00,,,0.00,WeatherCatV1.10B1784,2013-01-26 20:52:00,
2013-01-26 12:57:00,49.9,43.3,29.93,NNW,347,3.0,6.0,78,0.00,,,0.00,WeatherCatV1.10B1784,2013-01-26 20:57:00,
2013-01-26 13:02:00,50.0,43.4,29.93,NNW,343,1.0,2.0,78,0.00,,,0.00,WeatherCatV1.10B1784,2013-01-26 21:02:00,
2013-01-26 13:07:00,50.4,42.8,29.93,NNW,337,2.0,4.0,75,0.00,,,0.00,WeatherCatV1.10B1784,2013-01-26 21:07:00,
2013-01-26 13:12:00,50.6,42.3,29.93,NW,323,3.0,3.0,73,0.00,,,0.00,WeatherCatV1.10B1784,2013-01-26 21:12:00,
2013-01-26 13:17:00,50.6,41.2,29.93,NNW,345,0.0,3.0,70,0.00,,,0.00,WeatherCatV1.10B1784,2013-01-26 21:17:00,
2013-01-26 13:22:00,50.7,40.9,29.93,North,358,0.0,2.0,69,0.00,,,0.00,WeatherCatV1.10B1784,2013-01-26 21:22:00,
2013-01-26 13:27:00,50.8,40.2,29.93,NW,319,4.0,4.0,67,0.00,,,0.00,WeatherCatV1.10B1784,2013-01-26 21:27:00,
2013-01-26 13:32:00,50.7,39.4,29.93,North,353,2.0,2.0,65,0.00,,,0.00,WeatherCatV1.10B1784,2013-01-26 21:32:00,
2013-01-26 13:37:00,50.6,38.9,29.93,NE,38,0.0,9.0,64,0.00,,,0.00,WeatherCatV1.10B1784,2013-01-26 21:37:00,
2013-01-26 13:42:00,50.7,38.6,29.93,North,356,1.0,4.0,63,0.00,,,0.00,WeatherCatV1.10B1784,2013-01-26 21:42:00,
2013-01-26 13:47:00,50.7,37.3,29.92,NNW,345,0.0,5.0,60,0.00,,,0.00,WeatherCatV1.10B1784,2013-01-26 21:47:00,
2013-01-26 13:52:00,50.7,37.7,29.92,NNW,342,4.0,4.0,61,0.00,,,0.00,WeatherCatV1.10B1784,2013-01-26 21:52:00,
2013-01-26 13:57:00,50.6,37.7,29.92,NNW,348,1.0,4.0,61,0.00,,,0.00,WeatherCatV1.10B1784,2013-01-26 21:57:00,
2013-01-26 14:02:00,50.6,37.7,29.93,NNW,339,1.0,4.0,61,0.00,,,0.00,WeatherCatV1.10B1784,2013-01-26 22:02:00,
2013-01-26 14:07:00,50.6,36.8,29.93,NNW,331,5.0,6.0,59,0.00,,,0.00,WeatherCatV1.10B1784,2013-01-26 22:07:00,
2013-01-26 14:12:00,50.6,37.2,29.93,NNW,346,2.0,3.0,60,0.00,,,0.00,WeatherCatV1.10B1784,2013-01-26 22:12:00,
2013-01-26 14:17:00,50.6,37.7,29.93,NE,40,1.0,4.0,61,0.00,,,0.00,WeatherCatV1.10B1784,2013-01-26 22:17:00,
2013-01-26 14:22:00,50.5,37.1,29.93,North,2,3.0,5.0,60,0.00,,,0.00,WeatherCatV1.10B1784,2013-01-26 22:22:00,
2013-01-26 14:27:00,50.4,37.5,29.93,NW,317,0.0,6.0,61,0.00,,,0.00,WeatherCatV1.10B1784,2013-01-26 22:27:00,
2013-01-26 14:32:00,50.4,37.9,29.93,NE,42,1.0,2.0,62,0.00,,,0.00,WeatherCatV1.10B1784,2013-01-26 22:32:00,
2013-01-26 14:37:00,50.3,37.4,29.93,NNW,338,6.0,6.0,61,0.00,,,0.00,WeatherCatV1.10B1784,2013-01-26 22:37:00,
2013-01-26 14:42:00,50.4,38.3,29.93,East,85,0.0,4.0,63,0.00,,,0.00,WeatherCatV1.10B1784,2013-01-26 22:42:00,
2013-01-26 14:47:00,50.3,38.2,29.93,NNE,13,0.0,3.0,63,0.00,,,0.00,WeatherCatV1.10B1784,2013-01-26 22:47:00,
2013-01-26 14:52:00,50.3,39.0,29.93,ENE,59,0.0,1.0,65,0.00,,,0.00,WeatherCatV1.10B1784,2013-01-26 22:52:00,
2013-01-26 14:57:00,50.2,38.5,29.93,NNW,343,3.0,3.0,64,0.00,,,0.00,WeatherCatV1.10B1784,2013-01-26 22:57:00,
2013-01-26 15:02:00,50.1,38.8,29.93,North,354,1.0,7.0,65,0.00,,,0.00,WeatherCatV1.10B1784,2013-01-26 23:02:00,
2013-01-26 15:07:00,50.0,39.1,29.93,North,356,4.0,5.0,66,0.00,,,0.00,WeatherCatV1.10B1784,2013-01-26 23:07:00,
2013-01-26 15:12:00,49.8,39.3,29.93,NNW,332,1.0,2.0,67,0.00,,,0.00,WeatherCatV1.10B1784,2013-01-26 23:12:00,
2013-01-26 15:17:00,49.6,39.1,29.94,NE,35,0.0,4.0,67,0.00,,,0.00,WeatherCatV1.10B1784,2013-01-26 23:17:00,
2013-01-26 15:22:00,49.4,38.9,29.94,NNW,342,4.0,5.0,67,0.00,,,0.00,WeatherCatV1.10B1784,2013-01-26 23:22:00,
2013-01-26 15:27:00,49.2,39.1,29.94,NE,44,1.0,4.0,68,0.00,,,0.00,WeatherCatV1.10B1784,2013-01-26 23:27:00,
2013-01-26 15:32:00,49.0,38.5,29.94,NNW,329,5.0,5.0,67,0.00,,,0.00,WeatherCatV1.10B1784,2013-01-26 23:32:00,
2013-01-26 15:37:00,48.7,38.6,29.94,NNW,340,1.0,4.0,68,0.00,,,0.00,WeatherCatV1.10B1784,2013-01-26 23:37:00,
2013-01-26 15:42:00,48.3,39.0,29.94,NNW,337,4.0,8.0,70,0.00,,,0.00,WeatherCatV1.10B1784,2013-01-26 23:42:00,
2013-01-26 15:47:00,47.8,39.2,29.94,NNW,337,2.0,9.0,72,0.00,,,0.00,WeatherCatV1.10B1784,2013-01-26 23:47:00,
2013-01-26 15:52:00,47.4,39.2,29.94,NNW,330,2.0,3.0,73,0.00,,,0.00,WeatherCatV1.10B1784,2013-01-26 23:52:00,
2013-01-26 15:57:00,47.0,38.8,29.94,NNW,346,1.0,4.0,73,0.00,,,0.00,WeatherCatV1.10B1784,2013-01-26 23:57:00,
2013-01-26 16:02:00,46.7,38.9,29.94,North,10,2.0,4.0,74,0.00,,,0.00,WeatherCatV1.10B1784,2013-01-27 00:02:00,
2013-01-26 16:07:00,46.4,38.9,29.94,North,356,0.0,6.0,75,0.00,,,0.00,WeatherCatV1.10B1784,2013-01-27 00:07:00,
2013-01-26 16:12:00,46.1,38.3,29.94,NNE,22,0.0,6.0,74,0.00,,,0.00,WeatherCatV1.10B1784,2013-01-27 00:12:00,
2013-01-26 16:17:00,45.8,38.3,29.94,NNW,339,2.0,10.0,75,0.00,,,0.00,WeatherCatV1.10B1784,2013-01-27 00:17:00,
2013-01-26 16:22:00,45.4,37.9,29.94,NNW,339,2.0,7.0,75,0.00,,,0.00,WeatherCatV1.10B1784,2013-01-27 00:22:00,
2013-01-26 16:27:00,45.1,38.0,29.94,NNW,335,1.0,7.0,76,0.00,,,0.00,WeatherCatV1.10B1784,2013-01-27 00:27:00,
2013-01-26 16:32:00,44.8,37.7,29.94,NNW,346,6.0,9.0,76,0.00,,,0.00,WeatherCatV1.10B1784,2013-01-27 00:32:00,
2013-01-26 16:37:00,44.5,37.7,29.94,NNW,338,8.0,8.0,77,0.00,,,0.00,WeatherCatV1.10B1784,2013-01-27 00:37:00,
2013-01-26 16:42:00,44.3,37.6,29.94,NNW,339,3.0,6.0,77,0.00,,,0.00,WeatherCatV1.10B1784,2013-01-27 00:42:00,
2013-01-26 16:47:00,44.1,37.4,29.94,NNE,31,5.0,9.0,77,0.00,,,0.00,WeatherCatV1.10B1784,2013-01-27 00:47:00,
2013-01-26 16:52:00,44.0,37.3,29.94,NNW,337,2.0,8.0,77,0.00,,,0.00,WeatherCatV1.10B1784,2013-01-27 00:52:00,
2013-01-26 16:57:00,43.8,37.1,29.94,NW,317,5.0,9.0,77,0.00,,,0.00,WeatherCatV1.10B1784,2013-01-27 00:57:00,
2013-01-26 17:02:00,43.7,36.6,29.94,NW,312,9.0,11.0,76,0.00,,,0.00,WeatherCatV1.10B1784,2013-01-27 01:02:00,
2013-01-26 17:07:00,43.6,37.2,29.94,NNW,335,2.0,8.0,78,0.00,,,0.00,WeatherCatV1.10B1784,2013-01-27 01:07:00,
2013-01-26 17:12:00,43.4,37.0,29.94,NNW,338,4.0,6.0,78,0.00,,,0.00,WeatherCatV1.10B1784,2013-01-27 01:12:00,
2013-01-26 17:17:00,43.2,36.8,29.95,North,10,2.0,9.0,78,0.00,,,0.00,WeatherCatV1.10B1784,2013-01-27 01:17:00,
2013-01-26 17:22:00,43.1,37.0,29.95,NNW,337,6.0,7.0,79,0.00,,,0.00,WeatherCatV1.10B1784,2013-01-27 01:22:00,
2013-01-26 17:27:00,42.9,36.8,29.95,NW,322,4.0,7.0,79,0.00,,,0.00,WeatherCatV1.10B1784,2013-01-27 01:27:00,
2013-01-26 17:32:00,42.8,37.1,29.95,NNW,329,5.0,5.0,80,0.00,,,0.00,WeatherCatV1.10B1784,2013-01-27 01:32:00,
2013-01-26 17:37:00,42.6,37.2,29.95,NNW,333,4.0,6.0,81,0.00,,,0.00,WeatherCatV1.10B1784,2013-01-27 01:37:00,
2013-01-26 17:42:00,42.4,37.0,29.95,SE,140,3.0,6.0,81,0.00,,,0.00,WeatherCatV1.10B1784,2013-01-27 01:42:00,
2013-01-26 17:47:00,42.2,37.1,29.95,East,88,2.0,5.0,82,0.00,,,0.00,WeatherCatV1.10B1784,2013-01-27 01:47:00,
2013-01-26 17:52:00,42.0,37.2,29.95,NNW,340,2.0,5.0,83,0.00,,,0.00,WeatherCatV1.10B1784,2013-01-27 01:52:00,
2013-01-26 17:57:00,41.9,37.1,29.95,North,350,3.0,9.0,83,0.00,,,0.00,WeatherCatV1.10B1784,2013-01-27 01:57:00,
2013-01-26 18:02:00,41.7,37.2,29.96,NNW,337,4.0,7.0,84,0.00,,,0.00,WeatherCatV1.10B1784,2013-01-27 02:02:00,
2013-01-26 18:07:00,41.6,37.4,29.96,NNW,337,4.0,7.0,85,0.00,,,0.00,WeatherCatV1.10B1784,2013-01-27 02:07:00,
2013-01-26 18:12:00,41.4,37.5,29.96,NNW,340,5.0,5.0,86,0.00,,,0.00,WeatherCatV1.10B1784,2013-01-27 02:12:00,
2013-01-26 18:17:00,41.3,37.1,29.97,NNW,341,3.0,7.0,85,0.00,,,0.00,WeatherCatV1.10B1784,2013-01-27 02:17:00,
2013-01-26 18:22:00,41.2,37.0,29.97,NNW,341,4.0,6.0,85,0.00,,,0.00,WeatherCatV1.10B1784,2013-01-27 02:22:00,
2013-01-26 18:27:00,41.1,36.9,29.97,NNW,332,3.0,6.0,85,0.00,,,0.00,WeatherCatV1.10B1784,2013-01-27 02:27:00,
2013-01-26 18:32:00,40.9,36.7,29.97,NW,322,4.0,8.0,85,0.00,,,0.00,WeatherCatV1.10B1784,2013-01-27 02:32:00,
2013-01-26 18:37:00,40.9,36.7,29.97,NNW,332,2.0,9.0,85,0.00,,,0.00,WeatherCatV1.10B1784,2013-01-27 02:37:00,
2013-01-26 18:42:00,40.7,36.2,29.97,NNW,334,5.0,7.0,84,0.00,,,0.00,WeatherCatV1.10B1784,2013-01-27 02:42:00,
2013-01-26 18:47:00,40.8,36.3,29.97,NNW,331,13.0,13.0,84,0.00,,,0.00,WeatherCatV1.10B1784,2013-01-27 02:47:00,
2013-01-26 18:52:00,40.7,36.2,29.97,NNW,339,5.0,7.0,84,0.00,,,0.00,WeatherCatV1.10B1784,2013-01-27 02:52:00,
2013-01-26 18:57:00,40.6,36.2,29.97,NNW,335,4.0,6.0,84,0.00,,,0.00,WeatherCatV1.10B1784,2013-01-27 02:57:00,
2013-01-26 19:02:00,40.5,36.1,29.97,SSW,212,4.0,8.0,84,0.00,,,0.00,WeatherCatV1.10B1784,2013-01-27 03:02:00,
2013-01-26 19:07:00,40.5,36.1,29.97,NNW,339,6.0,7.0,84,0.00,,,0.00,WeatherCatV1.10B1784,2013-01-27 03:07:00,
2013-01-26 19:12:00,40.4,36.0,29.97,NNW,329,4.0,6.0,84,0.00,,,0.00,WeatherCatV1.10B1784,2013-01-27 03:12:00,
2013-01-26 19:17:00,40.4,36.0,29.98,SSE,167,7.0,7.0,84,0.00,,,0.00,WeatherCatV1.10B1784,2013-01-27 03:17:00,
2013-01-26 19:22:00,40.2,35.8,29.98,NNW,339,2.0,6.0,84,0.00,,,0.00,WeatherCatV1.10B1784,2013-01-27 03:22:00,
2013-01-26 19:27:00,40.1,35.7,29.98,NNW,348,5.0,7.0,84,0.00,,,0.00,WeatherCatV1.10B1784,2013-01-27 03:27:00,
2013-01-26 19:32:00,40.2,36.1,29.98,NNW,348,2.0,4.0,85,0.00,,,0.00,WeatherCatV1.10B1784,2013-01-27 03:32:00,
2013-01-26 19:37:00,40.2,35.8,29.98,NNW,329,2.0,4.0,84,0.00,,,0.00,WeatherCatV1.10B1784,2013-01-27 03:37:00,
2013-01-26 19:42:00,40.2,35.8,29.98,NNW,331,2.0,2.0,84,0.00,,,0.00,WeatherCatV1.10B1784,2013-01-27 03:42:00,
2013-01-26 19:47:00,40.2,36.1,29.98,North,6,0.0,3.0,85,0.00,,,0.00,WeatherCatV1.10B1784,2013-01-27 03:47:00,
2013-01-26 19:52:00,40.2,36.1,29.98,NNW,330,4.0,4.0,85,0.00,,,0.00,WeatherCatV1.10B1784,2013-01-27 03:52:00,
2013-01-26 19:57:00,40.1,36.0,29.98,NNW,335,2.0,5.0,85,0.00,,,0.00,WeatherCatV1.10B1784,2013-01-27 03:57:00,
2013-01-26 20:02:00,40.0,35.9,29.99,North,4,3.0,4.0,85,0.00,,,0.00,WeatherCatV1.10B1784,2013-01-27 04:02:00,
2013-01-26 20:07:00,39.9,35.8,29.99,NNE,17,2.0,6.0,85,0.00,,,0.00,WeatherCatV1.10B1784,2013-01-27 04:07:00,
2013-01-26 20:12:00,39.7,35.6,29.99,NNW,339,3.0,5.0,85,0.00,,,0.00,WeatherCatV1.10B1784,2013-01-27 04:12:00,
2013-01-26 20:17:00,39.4,35.6,29.99,NNW,335,3.0,5.0,86,0.00,,,0.00,WeatherCatV1.10B1784,2013-01-27 04:17:00,
2013-01-26 20:22:00,39.2,35.4,29.99,NNW,341,3.0,5.0,86,0.00,,,0.00,WeatherCatV1.10B1784,2013-01-27 04:22:00,
2013-01-26 20:27:00,39.1,35.3,29.99,NNW,335,2.0,3.0,86,0.00,,,0.00,WeatherCatV1.10B1784,2013-01-27 04:27:00,
2013-01-26 20:32:00,39.1,35.6,29.99,NNE,29,0.0,4.0,87,0.00,,,0.00,WeatherCatV1.10B1784,2013-01-27 04:32:00,
2013-01-26 20:37:00,38.9,35.4,29.99,NW,315,5.0,5.0,87,0.00,,,0.00,WeatherCatV1.10B1784,2013-01-27 04:37:00,
2013-01-26 20:42:00,38.9,35.4,29.99,NNW,335,1.0,3.0,87,0.00,,,0.00,WeatherCatV1.10B1784,2013-01-27 04:42:00,
2013-01-26 20:47:00,38.8,35.3,30.00,NNW,337,2.0,4.0,87,0.00,,,0.00,WeatherCatV1.10B1784,2013-01-27 04:47:00,
2013-01-26 20:52:00,38.8,35.3,30.00,NNW,335,2.0,2.0,87,0.00,,,0.00,WeatherCatV1.10B1784,2013-01-27 04:52:00,
2013-01-26 20:57:00,38.9,35.4,30.00,NNW,337,1.0,3.0,87,0.00,,,0.00,WeatherCatV1.10B1784,2013-01-27 04:57:00,
2013-01-26 21:00:00,38.9,35.4,30.00,NNW,335,3.0,3.0,87,0.00,,,0.00,WeatherCatV1.10B1784,2013-01-27 05:00:00,
2013-01-26 21:01:00,38.9,35.4,30.00,NNW,341,2.0,3.0,87,0.00,,,0.00,WeatherCatV1.10B1784,2013-01-27 05:01:00,
2013-01-26 21:06:00,39.0,35.5,30.00,NNW,343,1.0,3.0,87,0.00,,,0.00,WeatherCatV1.10B1784,2013-01-27 05:06:00,
2013-01-26 21:11:00,39.1,35.6,30.00,NNW,335,1.0,3.0,87,0.00,,,0.00,WeatherCatV1.10B1784,2013-01-27 05:11:00,
2013-01-26 21:16:00,39.0,35.5,30.00,NNW,335,0.0,1.0,87,0.00,,,0.00,WeatherCatV1.10B1784,2013-01-27 05:16:00,
2013-01-26 21:21:00,39.0,35.5,30.00,NNW,343,1.0,2.0,87,0.00,,,0.00,WeatherCatV1.10B1784,2013-01-27 05:21:00,
2013-01-26 21:26:00,39.0,35.2,30.00,NNW,334,1.0,4.0,86,0.00,,,0.00,WeatherCatV1.10B1784,2013-01-27 05:26:00,
2013-01-26 21:31:00,38.9,35.1,30.00,NNW,335,1.0,3.0,86,0.00,,,0.00,WeatherCatV1.10B1784,2013-01-27 05:31:00,
2013-01-26 21:36:00,38.8,35.3,30.00,NW,323,1.0,2.0,87,0.00,,,0.00,WeatherCatV1.10B1784,2013-01-27 05:36:00,
2013-01-26 21:41:00,38.7,35.2,30.00,NNW,342,2.0,4.0,87,0.00,,,0.00,WeatherCatV1.10B1784,2013-01-27 05:41:00,
2013-01-26 21:46:00,38.6,35.4,30.00,NNW,342,2.0,4.0,88,0.00,,,0.00,WeatherCatV1.10B1784,2013-01-27 05:46:00,
2013-01-26 21:51:00,38.4,35.2,30.00,NNW,329,1.0,2.0,88,0.00,,,0.00,WeatherCatV1.10B1784,2013-01-27 05:51:00,
2013-01-26 21:56:00,38.4,35.2,30.00,NNW,330,2.0,2.0,88,0.00,,,0.00,WeatherCatV1.10B1784,2013-01-27 05:56:00,
2013-01-26 22:01:00,38.4,35.2,30.00,NNW,331,2.0,3.0,88,0.00,,,0.00,WeatherCatV1.10B1784,2013-01-27 06:01:00,
2013-01-26 22:06:00,38.4,35.2,30.00,NNW,337,1.0,5.0,88,0.00,,,0.00,WeatherCatV1.10B1784,2013-01-27 06:06:00,
2013-01-26 22:11:00,38.4,35.2,30.00,NNW,341,1.0,2.0,88,0.00,,,0.00,WeatherCatV1.10B1784,2013-01-27 06:11:00,
2013-01-26 22:16:00,38.5,35.3,30.00,NNE,12,1.0,4.0,88,0.00,,,0.00,WeatherCatV1.10B1784,2013-01-27 06:16:00,
2013-01-26 22:21:00,38.4,35.2,30.00,North,3,0.0,4.0,88,0.00,,,0.00,WeatherCatV1.10B1784,2013-01-27 06:21:00,
2013-01-26 22:26:00,38.5,35.5,30.00,NNW,343,1.0,1.0,89,0.00,,,0.00,WeatherCatV1.10B1784,2013-01-27 06:26:00,
2013-01-26 22:31:00,38.6,35.6,30.00,NNW,343,0.0,5.0,89,0.00,,,0.00,WeatherCatV1.10B1784,2013-01-27 06:31:00,
2013-01-26 22:36:00,38.6,35.6,30.00,NNW,329,0.0,5.0,89,0.00,,,0.00,WeatherCatV1.10B1784,2013-01-27 06:36:00,
2013-01-26 22:41:00,38.6,35.6,30.00,NNW,337,3.0,3.0,89,0.00,,,0.00,WeatherCatV1.10B1784,2013-01-27 06:41:00,
2013-01-26 22:46:00,38.6,35.6,30.01,NNW,344,0.0,2.0,89,0.00,,,0.00,WeatherCatV1.10B1784,2013-01-27 06:46:00,
2013-01-26 22:51:00,38.6,35.6,30.01,NNW,337,0.0,3.0,89,0.00,,,0.00,WeatherCatV1.10B1784,2013-01-27 06:51:00,
2013-01-26 22:56:00,38.5,35.5,30.01,NNW,337,1.0,3.0,89,0.00,,,0.00,WeatherCatV1.10B1784,2013-01-27 06:56:00,
2013-01-26 23:01:00,38.5,35.5,30.01,NNW,341,0.0,1.0,89,0.00,,,0.00,WeatherCatV1.10B1784,2013-01-27 07:01:00,
2013-01-26 23:06:00,38.4,35.4,30.01,NNW,339,1.0,2.0,89,0.00,,,0.00,WeatherCatV1.10B1784,2013-01-27 07:06:00,
2013-01-26 23:13:00,38.5,35.5,30.01,NNE,24,0.0,3.0,89,0.00,,,0.00,WeatherCatV1.10B1784,2013-01-27 07:13:00,
2013-01-26 23:18:00,38.5,35.5,30.01,NNW,333,1.0,1.0,89,0.00,,,0.00,WeatherCatV1.10B1784,2013-01-27 07:18:00,
2013-01-26 23:23:00,38.6,35.6,30.01,NNE,28,0.0,2.0,89,0.00,,,0.00,WeatherCatV1.10B1784,2013-01-27 07:23:00,
2013-01-26 23:28:00,38.6,35.6,30.01,North,352,0.0,4.0,89,0.00,,,0.00,WeatherCatV1.10B1784,2013-01-27 07:28:00,
2013-01-26 23:33:00,38.5,35.5,30.01,NNW,332,1.0,4.0,89,0.00,,,0.00,WeatherCatV1.10B1784,2013-01-27 07:33:00,
2013-01-26 23:38:00,38.6,35.6,30.01,North,349,0.0,3.0,89,0.00,,,0.00,WeatherCatV1.10B1784,2013-01-27 07:38:00,
2013-01-26 23:43:00,38.6,35.6,30.01,North,349,0.0,3.0,89,0.00,,,0.00,WeatherCatV1.10B1784,2013-01-27 07:43:00,
2013-01-26 23:48:00,38.5,35.5,30.01,NNW,335,2.0,4.0,89,0.00,,,0.00,WeatherCatV1.10B1784,2013-01-27 07:48:00,
2013-01-26 23:53:00,38.5,35.5,30.01,SSW,204,1.0,4.0,89,0.00,,,0.00,WeatherCatV1.10B1784,2013-01-27 07:53:00,
2013-01-26 23:58:00,38.5,35.5,30.01,NNW,344,2.0,4.0,89,0.00,,,0.00,WeatherCatV1.10B1784,2013-01-27 07:58:00,